Weather History for Grazzanise, Italy

Change the Weather History Date:

Tuesday, June 10, 2014

  Actual Average (LIRN) Record (LIRN)
Temperature  
Mean Temperature 79 °F -  
Max Temperature 96 °F 82 °F 92 °F (2014)
Min Temperature 62 °F 60 °F 55 °F (2002)
Cooling Degree Days 14    
Growing Degree Days 29 (Base 50)    
Moisture  
Dew Point 67 °F    
Average Humidity 81    
Maximum Humidity 100    
Minimum Humidity 29    
Precipitation  
Precipitation 0.08 in 0.03 in - ()
Sea Level Pressure  
Sea Level Pressure 30.02 in    
Wind  
Wind Speed 6 mph ()    
Max Wind Speed 14 mph    
Max Gust Speed -    
Visibility 7.3 miles    
Events Rain , Thunderstorm    
Averages and records for this station are not official NWS values.
T = Trace of Precipitation, MM = Missing Value Source: Averaged Metar Reports

Daily Weather History Graph

Daily Weather History Graph

Search for Another Location

Airport:

Trip Planner

Search our weather history database for the weather conditions in past years. The results will help you decide how hot, cold, wet, or windy it might be!

Date:

Astronomy

Jun. 10, 2014 Rise Set
Actual Time 5:31 AM CEST 8:35 PM CEST
Civil Twilight 4:57 AM CEST 9:08 PM CEST
Nautical Twilight 4:15 AM CEST 9:51 PM CEST
Astronomical Twilight 3:24 AM CEST 10:41 PM CEST
Moon 5:40 PM CEST (6/10) 3:26 AM CEST (6/10)
Length of Visible Light 16h 11m
Length of Day
15h 04m
Waxing Gibbous, 90% of the Moon is Illuminated
Jun 10
Waxing Gibbous
Jun 13
Full
Jun 19
Last Quarter
Jun 27
New
Jul 5
First Quarter

Hourly Weather History & Observations

Time (CEST) Temp. Heat Index Dew Point Humidity Pressure Visibility Wind Dir Wind Speed Gust Speed Precip Events Conditions
12:55 AM 69.8 °F - 68.0 °F 94% 30.01 in - NNE 5.8 mph - N/A   Clear
1:55 AM 69.8 °F - 68.0 °F 94% 30.01 in - NNE 5.8 mph - N/A   Clear
2:00 AM 69 °F - 69 °F 98% 30.01 in 6 mi NNE 5.8 mph - -  
2:55 AM 68.0 °F - 66.2 °F 94% 30.01 in - NNE 4.6 mph - N/A   Clear
3:55 AM 68.0 °F - 66.2 °F 94% 30.01 in - SE 2.3 mph - N/A   Clear
4:55 AM 64.4 °F - 62.6 °F 94% 30.01 in - North 6.9 mph - N/A   Clear
5:00 AM 64 °F - 63 °F 97% 30.02 in 6 mi North 6.9 mph - -   Clear
6:55 AM 71.6 °F - 66.2 °F 83% 30.01 in - NE 6.9 mph - N/A   Clear
7:55 AM 77.0 °F - 68.0 °F 74% 30.04 in - ENE 5.8 mph - N/A   Clear
8:00 AM 76 °F - 67 °F 68% 30.04 in 12 mi ENE 5.8 mph - -  
9:55 AM 86.0 °F 87.3 °F 64.4 °F 48% 30.04 in 6.2 mi NE 9.2 mph - N/A   Partly Cloudy
10:55 AM 89.6 °F 90.1 °F 62.6 °F 40% 30.04 in - ENE 5.8 mph - N/A   Clear
11:00 AM 90 °F - 62 °F 29% 30.04 in 12 mi ENE 5.8 mph - -  
1:55 PM 95.0 °F 101.3 °F 69.8 °F 44% 30.01 in 6.2 mi WSW 11.5 mph - N/A   Partly Cloudy
2:00 PM 95 °F - 69 °F 33% 30.01 in 12 mi WSW 11.5 mph - -   Scattered Clouds
3:55 PM 86.0 °F 86.6 °F 62.6 °F 45% 29.98 in 6.2 mi West 13.8 mph - N/A Thunderstorm Thunderstorm
4:13 PM 86.0 °F 86.6 °F 62.6 °F 45% 29.98 in 6.2 mi West 9.2 mph - N/A Rain , Thunderstorm Light Thunderstorms and Rain
4:55 PM 75.2 °F - 75.2 °F 100% 30.01 in 6.2 mi ENE 5.8 mph - N/A Rain , Thunderstorm Light Thunderstorms and Rain
5:00 PM 75 °F - 75 °F 99% 30.03 in 7 mi ENE 5.8 mph - - Rain , Thunderstorm Thunderstorms and Rain
5:55 PM 75.2 °F - 73.4 °F 94% 30.01 in 6.2 mi WSW 5.8 mph - N/A Thunderstorm Thunderstorm
6:55 PM 71.6 °F - 71.6 °F 100% 30.01 in 6.2 mi SE 9.2 mph - N/A Rain , Thunderstorm Light Thunderstorms and Rain
7:55 PM 69.8 °F - 69.8 °F 100% 30.04 in 6.2 mi NE 5.8 mph - N/A Thunderstorm Thunderstorm
8:00 PM 71 °F - 70 °F 96% 30.04 in 7 mi NE 5.8 mph - - Thunderstorm Light Thunderstorm
8:55 PM 69.8 °F - 68.0 °F 94% 30.04 in 6.2 mi ENE 5.8 mph - N/A   Scattered Clouds
9:55 PM 68.0 °F - 68.0 °F 100% 30.04 in 6.2 mi SE 2.3 mph - N/A   Partly Cloudy
10:55 PM 66.2 °F - 66.2 °F 100% 30.04 in 6.2 mi NNE 3.5 mph - N/A   Partly Cloudy
11:00 PM 67 °F - 66 °F 97% 30.05 in 9 mi NNE 3.5 mph - -   Scattered Clouds
11:55 PM 66.2 °F - 66.2 °F 100% 30.04 in - NE 4.6 mph - N/A   Clear